Simultaneous Nadir Overpasses (SNOs) Predictions

Prediction of SNOs between GOES-16 and TERRA Satellite Orbit:

Table of predicted SNOs for the next 14.0 days since TLE Epoch: 3/2/2024
Index Date Time (GOES-16) GOES-16 Lat,Lon TERRA Lat,Lon Distance(km) Time Diff (sec)
1 03/03/2024 14:44:18 0.05, -75.22 -0.39, -73.17 233.62 80
2 03/04/2024 03:07:07 -0.05, -75.20 -0.64, -78.07 325.96 80
3 03/06/2024 02:47:29 -0.05, -75.21 0.23, -73.98 139.77 80
4 03/06/2024 15:10:11 0.05, -75.23 0.79, -78.85 410.95 80
5 03/08/2024 14:50:32 0.05, -75.24 -0.04, -74.75 55.73 80
6 03/11/2024 02:56:23 -0.05, -75.25 -0.11, -75.56 35.43 80
7 03/13/2024 02:36:44 -0.05, -75.27 0.77, -71.46 433.13 80
8 03/13/2024 14:56:46 0.05, -75.30 0.26, -76.34 117.09 80
9 03/15/2024 14:39:46 0.04, -75.33 -0.58, -72.23 352.00 80
